Location: Albany
(35.0000°S, 118.0000°E)
Time: 08:57:32
(UTC-05:00)

ERS-1 Rocket - Visible Passes

Search period start: 30 January 2015 00:00
Search period end: 09 February 2015 00:00
Orbit: 754 x 759 km, 98.7° (Epoch: 29 January)

Date Brightness Start Highest point End Pass type
(mag) Time Alt. Az. Time Alt. Az. Time Alt. Az.
30 Jan 4.6 07:49:33 10° S 07:54:12 35° WSW 07:58:44 10° NW visible
31 Jan 3.0 07:10:01 10° SSE 07:15:08 89° WSW 07:20:11 10° NNW visible
01 Feb 5.4 08:10:29 10° SSW 08:14:28 23° WSW 08:18:18 10° WNW visible
02 Feb 3.7 07:30:31 10° S 07:35:29 55° WSW 07:40:24 10° NNW visible
03 Feb 3.0 06:51:19 10° SSE 06:56:21 58° E 07:01:18 10° N visible
03 Feb 5.9 08:31:50 10° SSW 08:34:42 15° WSW 08:37:17 10° W visible
04 Feb 4.7 07:51:12 10° S 07:55:48 35° WSW 08:00:18 10° NW visible
05 Feb 3.0 07:11:37 10° SSE 07:16:45 87° W 07:21:48 10° NNW visible
06 Feb 3.5 06:32:48 10° SSE 06:37:28 36° E 06:42:07 10° NNE visible
06 Feb 5.4 08:12:07 10° SSW 08:16:04 22° WSW 08:19:51 10° WNW visible
07 Feb 3.8 07:32:07 10° S 07:37:05 54° WSW 07:41:59 10° NNW visible
08 Feb 3.0 06:52:54 10° SSE 06:57:56 60° E 07:02:54 10° N visible
08 Feb 5.9 08:33:30 10° SSW 08:36:17 14° WSW 08:38:47 10° W visible
